TimeAKST,TemperatureF,Dew PointF,Humidity,Sea Level PressureIn,VisibilityMPH,Wind Direction,Wind SpeedMPH,Gust SpeedMPH,PrecipitationIn,Events,Conditions,WindDirDegrees,DateUTC
12:04 AM,24.8,23.0,93,29.60,1.8,North,3.5,-,0.00,Snow,Light Snow,10,2012-12-12 09:04:00
12:15 AM,24.8,23.0,93,29.59,2.0,Calm,Calm,-,0.00,Snow,Light Snow,0,2012-12-12 09:15:00
12:29 AM,24.8,23.0,93,29.58,2.0,North,3.5,-,0.00,Snow,Light Snow,10,2012-12-12 09:29:00
12:50 AM,24.8,23.0,93,29.57,3.0,North,4.6,-,0.00,Snow,Light Snow,10,2012-12-12 09:50:00
12:53 AM,25.0,23.0,92,29.58,3.0,North,3.5,-,0.00,Snow,Light Snow,10,2012-12-12 09:53:00
1:42 AM,24.8,23.0,93,29.54,5.0,NNE,3.5,-,0.01,Snow,Light Snow,30,2012-12-12 10:42:00
1:53 AM,25.0,23.0,92,29.55,6.0,North,4.6,-,0.01,Snow,Light Snow,10,2012-12-12 10:53:00
2:35 AM,24.8,23.0,93,29.52,10.0,NNE,5.8,-,0.00,,Overcast,20,2012-12-12 11:35:00
3:45 AM,24.8,24.8,100,29.48,1.8,NE,5.8,-,0.02,Snow,Light Snow,50,2012-12-12 12:45:00
3:53 AM,25.0,24.1,96,29.48,2.0,ENE,5.8,-,0.02,Snow,Light Snow,60,2012-12-12 12:53:00
4:01 AM,24.8,24.8,100,29.46,6.0,NE,4.6,-,0.00,Snow,Light Snow,50,2012-12-12 13:01:00
4:53 AM,25.0,24.1,96,29.45,4.0,North,4.6,-,0.00,Snow,Light Snow,10,2012-12-12 13:53:00
5:14 AM,24.8,23.0,93,29.42,4.0,NNE,6.9,-,0.00,Snow,Light Snow,20,2012-12-12 14:14:00
5:46 AM,24.8,23.0,93,29.40,2.5,NE,6.9,-,0.01,Snow,Light Snow,40,2012-12-12 14:46:00
5:53 AM,25.0,23.0,92,29.41,2.5,NE,6.9,-,0.01,Snow,Light Snow,50,2012-12-12 14:53:00
6:01 AM,24.8,23.0,93,29.39,4.0,NE,6.9,-,0.00,Snow,Light Snow,40,2012-12-12 15:01:00
6:31 AM,24.8,23.0,93,29.38,2.5,North,9.2,-,0.01,Snow,Light Snow,360,2012-12-12 15:31:00
6:42 AM,24.8,23.0,93,29.38,4.0,North,6.9,-,0.01,Snow,Light Snow,360,2012-12-12 15:42:00
6:53 AM,25.0,23.0,92,29.38,3.0,NNE,9.2,-,0.01,Snow,Light Snow,20,2012-12-12 15:53:00
7:49 AM,24.8,23.0,93,29.35,3.0,NNE,6.9,-,0.01,,Overcast,30,2012-12-12 16:49:00
7:53 AM,24.1,23.0,96,29.36,3.0,NNE,8.1,-,0.01,,Overcast,30,2012-12-12 16:53:00
8:20 AM,24.8,23.0,93,29.34,3.0,NNE,6.9,-,0.00,Snow,Light Snow,20,2012-12-12 17:20:00
8:41 AM,24.8,23.0,93,29.34,7.0,NNE,6.9,-,0.00,Snow,Light Snow,20,2012-12-12 17:41:00
8:53 AM,24.1,23.0,96,29.34,6.0,North,5.8,-,0.00,Snow,Light Snow,10,2012-12-12 17:53:00
9:32 AM,24.8,23.0,93,29.33,4.0,North,6.9,-,0.00,,Overcast,10,2012-12-12 18:32:00
9:39 AM,24.8,23.0,93,29.32,2.0,North,5.8,-,0.00,,Overcast,360,2012-12-12 18:39:00
9:53 AM,25.0,24.1,96,29.33,1.5,North,4.6,-,0.00,,Overcast,10,2012-12-12 18:53:00
10:53 AM,25.0,24.1,96,29.33,2.0,NNE,4.6,-,N/A,,Overcast,30,2012-12-12 19:53:00
10:55 AM,24.8,24.8,100,29.31,1.5,NNE,4.6,-,N/A,,Overcast,20,2012-12-12 19:55:00
11:53 AM,26.1,25.0,96,29.31,1.5,Calm,Calm,-,N/A,,Overcast,0,2012-12-12 20:53:00
12:53 PM,26.1,25.0,96,29.31,1.2,Calm,Calm,-,N/A,,Overcast,0,2012-12-12 21:53:00
1:24 PM,26.6,24.8,93,29.30,0.8,South,3.5,-,0.01,Snow,Light Snow,190,2012-12-12 22:24:00
1:34 PM,26.6,24.8,93,29.29,1.5,South,4.6,-,0.01,Snow,Light Snow,190,2012-12-12 22:34:00
1:38 PM,26.6,24.8,93,29.29,2.0,SSW,3.5,-,0.01,Snow,Light Snow,210,2012-12-12 22:38:00
1:53 PM,26.1,25.0,96,29.30,3.0,Calm,Calm,-,0.01,Snow,Light Snow,0,2012-12-12 22:53:00
1:56 PM,26.6,24.8,93,29.29,3.0,Calm,Calm,-,0.00,,Overcast,0,2012-12-12 22:56:00
2:36 PM,26.6,24.8,93,29.28,3.0,SSE,4.6,-,0.00,,Overcast,160,2012-12-12 23:36:00
2:44 PM,26.6,24.8,93,29.28,2.0,South,3.5,-,0.00,,Overcast,190,2012-12-12 23:44:00
2:53 PM,26.1,25.0,96,29.28,2.0,Calm,Calm,-,0.00,,Overcast,0,2012-12-12 23:53:00
3:53 PM,26.1,25.0,96,29.28,1.0,Calm,Calm,-,N/A,,Overcast,0,2012-12-13 00:53:00
4:03 PM,26.6,24.8,93,29.27,0.8,Calm,Calm,-,N/A,,Overcast,0,2012-12-13 01:03:00
4:53 PM,26.1,26.1,100,29.28,1.2,ENE,3.5,-,N/A,,Overcast,60,2012-12-13 01:53:00
5:53 PM,26.1,26.1,100,29.28,1.0,Calm,Calm,-,N/A,,Overcast,0,2012-12-13 02:53:00
6:14 PM,26.6,24.8,93,29.27,0.8,Calm,Calm,-,N/A,,Mist,0,2012-12-13 03:14:00
6:53 PM,27.0,26.1,96,29.28,0.2,Calm,Calm,-,N/A,Fog,Light Freezing Fog,0,2012-12-13 03:53:00
7:21 PM,24.8,24.8,100,29.27,0.8,SSW,4.6,-,N/A,,Mist,200,2012-12-13 04:21:00
7:31 PM,24.8,24.8,100,29.27,1.0,Calm,Calm,-,N/A,,Mist,0,2012-12-13 04:31:00
7:53 PM,25.0,24.1,96,29.29,0.8,Calm,Calm,-,N/A,,Mist,0,2012-12-13 04:53:00
8:05 PM,26.6,24.8,93,29.27,1.0,Calm,Calm,-,N/A,,Mist,0,2012-12-13 05:05:00
8:15 PM,24.8,24.8,100,29.27,0.8,SSW,4.6,-,N/A,,Mist,210,2012-12-13 05:15:00
8:30 PM,26.6,24.8,93,29.27,0.2,WSW,4.6,-,N/A,Fog,Light Freezing Fog,240,2012-12-13 05:30:00
8:36 PM,26.6,26.6,100,29.27,0.5,Calm,Calm,-,N/A,Fog,Light Freezing Fog,0,2012-12-13 05:36:00
8:53 PM,25.0,24.1,96,29.29,0.5,SSW,6.9,-,N/A,Fog,Light Freezing Fog,200,2012-12-13 05:53:00
9:11 PM,26.6,24.8,93,29.27,0.2,SW,10.4,-,N/A,Fog,Light Freezing Fog,220,2012-12-13 06:11:00
9:19 PM,24.8,24.8,100,29.26,0.5,SSW,11.5,-,N/A,Fog,Light Freezing Fog,210,2012-12-13 06:19:00
9:26 PM,26.6,24.8,93,29.26,2.0,SSW,13.8,-,N/A,,Mostly Cloudy,200,2012-12-13 06:26:00
9:31 PM,26.6,24.8,93,29.26,10.0,SSW,11.5,-,N/A,,Scattered Clouds,200,2012-12-13 06:31:00
9:53 PM,25.0,24.1,96,29.28,1.2,North,3.5,-,N/A,,Partly Cloudy,350,2012-12-13 06:53:00
9:55 PM,24.8,24.8,100,29.27,0.8,North,5.8,-,N/A,,Mist,10,2012-12-13 06:55:00
10:18 PM,24.8,23.0,93,29.27,1.0,Calm,Calm,-,N/A,,Mist,0,2012-12-13 07:18:00
10:28 PM,28.4,26.6,93,29.27,3.0,South,15.0,20.7,N/A,,Mostly Cloudy,190,2012-12-13 07:28:00
10:37 PM,30.2,28.4,93,29.27,10.0,South,17.3,-,N/A,,Partly Cloudy,190,2012-12-13 07:37:00
10:53 PM,30.0,28.0,92,29.28,10.0,South,18.4,25.3,N/A,,Partly Cloudy,190,2012-12-13 07:53:00
11:53 PM,30.0,28.0,92,29.29,10.0,SSE,10.4,-,N/A,,Partly Cloudy,160,2012-12-13 08:53:00